QPF
0.01 0.02 0.03 0.04 0.02 0.01 0.00 0.00 0.00 0.00 0.02 0.04 0.09 0.08 0.04 0.04 0.01 0.00 0.00 0.00 0.00 0.02 0.02 0.01 0.01 0.02 0.02 0.02 0.02 0.04 0.06 0.06 0.06 0.07 0.07 0.07 0.07 0.08 0.10 0.09 0.09 0.10 0.10 0.09
0.00 0.01 0.02 0.01 0.01 0.00 0.00 0.00 0.00 0.00 0.01 0.02 0.04 0.07 0.04 0.02 0.01 0.01 0.00 0.01 0.01 0.01 0.02 0.03 0.03 0.03 0.03 0.03 0.02 0.04 0.06 0.06 0.07 0.09 0.09 0.08 0.07 0.08 0.09 0.08 0.09 0.11 0.10 0.09
0.00 0.00 0.01 0.01 0.00 0.00 0.00 0.00 0.00 0.01 0.01 0.01 0.03 0.04 0.03 0.02 0.03 0.03 0.01 0.01 0.02 0.03 0.05 0.04 0.03 0.03 0.04 0.04 0.04 0.06 0.08 0.09 0.11 0.11 0.12 0.11 0.08 0.10 0.10 0.10 0.11 0.10 0.08 0.07
0.00 0.01 0.01 0.01 0.00 0.00 0.00 0.00 0.00 0.01 0.01 0.01 0.02 0.03 0.04 0.02 0.03 0.05 0.04 0.02 0.02 0.03 0.05 0.03 0.02 0.02 0.03 0.03 0.04 0.06 0.07 0.07 0.09 0.09 0.10 0.12 0.12 0.11 0.13 0.14 0.13 0.11 0.09 0.07
0.01 0.02 0.02 0.02 0.01 0.01 0.01 0.01 0.01 0.01 0.01 0.01 0.02 0.02 0.04 0.02 0.01 0.03 0.04 0.05 0.05 0.03 0.03 0.03 0.02 0.02 0.02 0.04 0.04 0.06 0.06 0.07 0.07 0.07 0.09 0.11 0.12 0.13 0.14 0.14 0.13 0.12 0.12 0.10
0.02 0.03 0.04 0.05 0.01 0.01 0.01 0.04 0.04 0.02 0.01 0.02 0.04 0.08 0.09 0.03 0.01 0.02 0.03 0.04 0.08 0.10 0.06 0.05 0.04 0.04 0.06 0.06 0.07 0.07 0.07 0.07 0.07 0.06 0.07 0.08 0.09 0.10 0.11 0.13 0.13 0.12 0.11 0.10
0.05 0.05 0.05 0.03 0.01 0.01 0.05 0.10 0.05 0.02 0.03 0.03 0.06 0.09 0.08 0.04 0.02 0.02 0.04 0.04 0.06 0.07 0.07 0.07 0.06 0.06 0.08 0.08 0.07 0.07 0.06 0.05 0.05 0.06 0.06 0.07 0.08 0.08 0.09 0.10 0.11 0.11 0.11 0.10
0.06 0.07 0.08 0.03 0.01 0.05 0.08 0.05 0.03 0.03 0.04 0.05 0.05 0.05 0.04 0.03 0.03 0.03 0.04 0.05 0.05 0.06 0.07 0.08 0.07 0.07 0.08 0.08 0.07 0.07 0.07 0.07 0.08 0.08 0.08 0.08 0.08 0.08 0.08 0.08 0.10 0.10 0.11 0.12
0.06 0.07 0.08 0.04 0.03 0.04 0.04 0.04 0.04 0.04 0.06 0.06 0.05 0.05 0.05 0.04 0.05 0.04 0.04 0.05 0.05 0.06 0.08 0.09 0.09 0.09 0.09 0.09 0.09 0.09 0.10 0.11 0.11 0.12 0.14 0.18 0.22 0.23 0.20 0.15 0.13 0.12 0.12 0.11
0.05 0.06 0.06 0.04 0.03 0.04 0.04 0.05 0.06 0.05 0.07 0.09 0.06 0.07 0.05 0.04 0.05 0.05 0.05 0.05 0.05 0.06 0.08 0.09 0.09 0.10 0.09 0.10 0.12 0.12 0.13 0.12 0.12 0.12 0.14 0.16 0.18 0.16 0.14 0.12 0.10 0.09 0.08 0.07
0.07 0.08 0.07 0.05 0.04 0.05 0.05 0.06 0.06 0.07 0.09 0.10 0.09 0.07 0.04 0.04 0.06 0.07 0.06 0.05 0.05 0.05 0.06 0.05 0.06 0.08 0.09 0.09 0.10 0.11 0.11 0.09 0.07 0.07 0.07 0.07 0.07 0.07 0.08 0.08 0.07 0.07 0.06 0.05
0.12 0.10 0.07 0.07 0.06 0.07 0.06 0.07 0.08 0.10 0.11 0.10 0.08 0.06 0.06 0.07 0.06 0.07 0.07 0.06 0.05 0.04 0.04 0.04 0.04 0.04 0.05 0.06 0.08 0.08 0.08 0.07 0.07 0.06 0.05 0.05 0.05 0.03 0.03 0.03 0.04 0.04 0.04 0.03
0.13 0.10 0.07 0.08 0.10 0.11 0.09 0.09 0.12 0.14 0.13 0.09 0.08 0.06 0.06 0.07 0.06 0.05 0.05 0.05 0.04 0.03 0.03 0.03 0.02 0.03 0.03 0.05 0.06 0.07 0.06 0.05 0.05 0.05 0.05 0.04 0.04 0.04 0.04 0.03 0.03 0.02 0.02 0.02
0.08 0.09 0.09 0.12 0.16 0.14 0.11 0.12 0.14 0.16 0.16 0.13 0.10 0.07 0.06 0.04 0.03 0.03 0.02 0.02 0.02 0.02 0.03 0.03 0.02 0.02 0.02 0.03 0.03 0.03 0.03 0.03 0.04 0.04 0.04 0.04 0.04 0.03 0.02 0.02 0.02 0.01 0.01 0.01
0.07 0.08 0.11 0.13 0.18 0.17 0.14 0.13 0.15 0.17 0.17 0.17 0.17 0.14 0.10 0.07 0.06 0.06 0.04 0.03 0.03 0.03 0.03 0.03 0.03 0.03 0.03 0.03 0.03 0.03 0.02 0.02 0.02 0.02 0.02 0.02 0.02 0.02 0.02 0.01 0.01 0.01 0.01 0.01
0.09 0.10 0.11 0.11 0.12 0.14 0.13 0.12 0.13 0.14 0.15 0.14 0.15 0.14 0.12 0.10 0.08 0.07 0.07 0.05 0.05 0.05 0.05 0.04 0.03 0.02 0.02 0.01 0.01 0.00 0.00 0.00 0.00 0.01 0.01 0.02 0.02 0.02 0.02 0.02 0.02 0.01 0.01 0.00
0.12 0.12 0.12 0.10 0.10 0.12 0.11 0.10 0.10 0.10 0.09 0.08 0.07 0.06 0.05 0.04 0.05 0.06 0.05 0.03 0.02 0.02 0.02 0.02 0.02 0.01 0.01 0.01 0.00 0.00 0.00 0.00 0.00 0.00 0.00 0.00 0.01 0.01 0.01 0.01 0.00 0.00 0.00 0.00
0.08 0.09 0.10 0.10 0.09 0.08 0.08 0.07 0.07 0.08 0.07 0.05 0.04 0.03 0.03 0.02 0.02 0.02 0.02 0.01 0.01 0.00 0.00 0.00 0.00 0.00 0.00 0.00 0.00 0.00 0.00 0.00 0.00 0.00 0.00 0.00 0.00 0.00 0.00 0.00 0.00 0.00 0.00 0.00
0.06 0.06 0.08 0.08 0.06 0.05 0.05 0.05 0.04 0.05 0.06 0.05 0.03 0.03 0.02 0.02 0.02 0.02 0.01 0.01 0.02 0.02 0.01 0.01 0.00 0.00 0.00 0.00 0.00 0.00 0.00 0.00 0.00 0.00 0.00 0.00 0.00 0.00 0.00 0.00 0.00 0.00 0.00 0.00
0.06 0.06 0.07 0.06 0.04 0.03 0.03 0.03 0.03 0.04 0.04 0.03 0.03 0.02 0.02 0.02 0.02 0.02 0.02 0.03 0.03 0.03 0.02 0.02 0.01 0.01 0.01 0.00 0.00 0.00 0.00 0.00 0.00 0.00 0.00 0.00 0.00 0.00 0.00 0.00 0.00 0.00 0.00 0.00
0.09 0.07 0.08 0.07 0.05 0.04 0.04 0.03 0.02 0.03 0.03 0.03 0.03 0.03 0.02 0.01 0.01 0.02 0.02 0.02 0.02 0.01 0.00 0.00 0.00 0.00 0.00 0.00 0.00 0.00 0.00 0.00 0.00 0.00 0.00 0.00 0.00 0.01 0.01 0.01 0.01 0.01 0.00 0.00
0.06 0.07 0.06 0.05 0.04 0.04 0.03 0.02 0.02 0.02 0.03 0.04 0.04 0.04 0.03 0.03 0.02 0.02 0.01 0.01 0.01 0.00 0.00 0.00 0.00 0.00 0.00 0.00 0.00 0.00 0.00 0.00 0.00 0.01 0.00 0.00 0.01 0.01 0.01 0.00 0.00 0.00 0.01 0.01
0.04 0.05 0.05 0.04 0.03 0.03 0.02 0.02 0.01 0.01 0.01 0.02 0.02 0.02 0.02 0.01 0.01 0.01 0.01 0.00 0.00 0.00 0.00 0.00 0.00 0.00 0.00 0.00 0.00 0.01 0.01 0.00 0.00 0.00 0.00 0.00 0.00 0.00 0.00 0.00 0.00 0.00 0.00 0.01
0.05 0.05 0.05 0.05 0.04 0.03 0.03 0.02 0.02 0.01 0.01 0.01 0.01 0.01 0.00 0.01 0.00 0.00 0.00 0.00 0.00 0.00 0.00 0.00 0.00 0.00 0.00 0.00 0.00 0.00 0.00 0.00 0.00 0.00 0.00 0.00 0.00 0.00 0.01 0.01 0.01 0.01 0.01 0.01
0.07 0.06 0.04 0.04 0.04 0.04 0.03 0.03 0.03 0.02 0.01 0.01 0.00 0.00 0.00 0.00 0.01 0.01 0.01 0.01 0.00 0.01 0.01 0.00 0.00 0.00 0.00 0.00 0.00 0.00 0.00 0.00 0.00 0.00 0.00 0.00 0.00 0.00 0.01 0.01 0.01 0.02 0.02 0.02
0.08 0.06 0.05 0.04 0.03 0.03 0.02 0.02 0.01 0.01 0.01 0.00 0.00 0.00 0.00 0.01 0.01 0.01 0.01 0.01 0.01 0.00 0.01 0.01 0.00 0.00 0.00 0.00 0.00 0.00 0.00 0.00 0.00 0.00 0.00 0.00 0.00 0.00 0.00 0.00 0.01 0.01 0.01 0.01
0.07 0.05 0.04 0.03 0.03 0.02 0.02 0.02 0.01 0.01 0.00 0.00 0.00 0.01 0.01 0.01 0.01 0.01 0.01 0.01 0.01 0.00 0.00 0.00 0.00 0.00 0.00 0.00 0.00 0.00 0.00 0.00 0.00 0.00 0.00 0.00 0.00 0.00 0.00 0.00 0.00 0.00 0.00 0.00
MSLP
1005.35 1005.92 1006.38 1006.73 1006.96 1007.06 1007.00 1006.80 1006.43 1005.91 1005.26 1004.51 1003.74 1002.99 1002.35 1001.86 1001.58 1001.53 1001.70 1002.09 1002.65 1003.32 1004.04 1004.78 1005.49 1006.15 1006.75 1007.31 1007.83 1008.34 1008.86 1009.38 1009.92 1010.46 1011.00 1011.50 1011.96 1012.37 1012.72 1013.00 1013.24 1013.44 1013.61 1013.77
1005.96 1006.47 1006.81 1007.00 1007.03 1006.92 1006.70 1006.37 1005.96 1005.47 1004.94 1004.38 1003.82 1003.29 1002.84 1002.49 1002.27 1002.19 1002.27 1002.51 1002.87 1003.33 1003.87 1004.46 1005.08 1005.70 1006.32 1006.94 1007.54 1008.15 1008.75 1009.34 1009.91 1010.47 1010.99 1011.46 1011.88 1012.24 1012.53 1012.77 1012.97 1013.13 1013.26 1013.39
1006.50 1006.92 1007.15 1007.19 1007.06 1006.80 1006.47 1006.08 1005.68 1005.28 1004.89 1004.53 1004.19 1003.89 1003.61 1003.37 1003.18 1003.05 1003.00 1003.03 1003.15 1003.37 1003.68 1004.08 1004.55 1005.10 1005.69 1006.33 1006.99 1007.66 1008.33 1008.98 1009.59 1010.16 1010.68 1011.13 1011.52 1011.84 1012.10 1012.31 1012.47 1012.61 1012.73 1012.84
1006.89 1007.23 1007.34 1007.25 1007.01 1006.66 1006.27 1005.88 1005.53 1005.25 1005.03 1004.88 1004.75 1004.64 1004.52 1004.37 1004.20 1004.00 1003.80 1003.63 1003.51 1003.47 1003.54 1003.72 1004.03 1004.46 1004.99 1005.61 1006.28 1006.99 1007.69 1008.38 1009.02 1009.60 1010.11 1010.55 1010.91 1011.22 1011.46 1011.66 1011.82 1011.96 1012.08 1012.19
1007.10 1007.33 1007.34 1007.16 1006.85 1006.46 1006.06 1005.71 1005.45 1005.30 1005.25 1005.28 1005.35 1005.42 1005.43 1005.36 1005.20 1004.95 1004.63 1004.27 1003.94 1003.67 1003.51 1003.50 1003.63 1003.93 1004.37 1004.94 1005.59 1006.29 1007.01 1007.70 1008.34 1008.92 1009.42 1009.85 1010.21 1010.50 1010.75 1010.95 1011.12 1011.28 1011.42 1011.54
1007.07 1007.20 1007.13 1006.90 1006.55 1006.16 1005.80 1005.52 1005.36 1005.34 1005.45 1005.65 1005.88 1006.09 1006.22 1006.22 1006.08 1005.80 1005.40 1004.93 1004.44 1004.01 1003.67 1003.49 1003.48 1003.66 1004.01 1004.50 1005.11 1005.77 1006.46 1007.13 1007.75 1008.31 1008.80 1009.22 1009.57 1009.86 1010.11 1010.34 1010.53 1010.72 1010.88 1011.04
1006.81 1006.85 1006.73 1006.48 1006.14 1005.79 1005.49 1005.30 1005.25 1005.36 1005.59 1005.92 1006.28 1006.61 1006.83 1006.90 1006.80 1006.52 1006.10 1005.58 1005.02 1004.49 1004.06 1003.78 1003.67 1003.75 1004.02 1004.44 1004.97 1005.58 1006.21 1006.84 1007.42 1007.95 1008.41 1008.81 1009.15 1009.44 1009.71 1009.95 1010.18 1010.39 1010.59 1010.78
1006.36 1006.33 1006.19 1005.95 1005.66 1005.39 1005.18 1005.09 1005.15 1005.36 1005.70 1006.12 1006.57 1006.97 1007.26 1007.40 1007.35 1007.13 1006.74 1006.24 1005.68 1005.15 1004.70 1004.38 1004.23 1004.26 1004.45 1004.81 1005.27 1005.80 1006.36 1006.92 1007.44 1007.92 1008.34 1008.71 1009.03 1009.33 1009.60 1009.86 1010.11 1010.36 1010.59 1010.81
1005.79 1005.73 1005.59 1005.40 1005.20 1005.02 1004.93 1004.95 1005.11 1005.40 1005.81 1006.30 1006.80 1007.25 1007.59 1007.79 1007.81 1007.66 1007.35 1006.93 1006.45 1005.98 1005.58 1005.29 1005.14 1005.14 1005.30 1005.59 1005.98 1006.42 1006.90 1007.37 1007.82 1008.23 1008.60 1008.93 1009.23 1009.51 1009.79 1010.06 1010.32 1010.59 1010.85 1011.09
1005.23 1005.16 1005.05 1004.94 1004.84 1004.78 1004.81 1004.94 1005.20 1005.56 1006.02 1006.54 1007.06 1007.54 1007.92 1008.16 1008.25 1008.19 1007.99 1007.69 1007.33 1006.98 1006.66 1006.44 1006.32 1006.33 1006.46 1006.69 1007.00 1007.35 1007.73 1008.11 1008.47 1008.80 1009.10 1009.38 1009.65 1009.91 1010.18 1010.45 1010.73 1011.00 1011.27 1011.53
1004.80 1004.74 1004.68 1004.65 1004.66 1004.74 1004.89 1005.13 1005.47 1005.90 1006.39 1006.92 1007.45 1007.93 1008.33 1008.62 1008.78 1008.81 1008.73 1008.55 1008.34 1008.10 1007.90 1007.75 1007.68 1007.70 1007.79 1007.96 1008.19 1008.44 1008.71 1008.98 1009.24 1009.49 1009.72 1009.95 1010.18 1010.41 1010.66 1010.91 1011.18 1011.46 1011.73 1011.98
1004.61 1004.56 1004.56 1004.61 1004.73 1004.92 1005.19 1005.53 1005.95 1006.43 1006.95 1007.49 1008.02 1008.50 1008.91 1009.23 1009.45 1009.56 1009.59 1009.54 1009.45 1009.33 1009.22 1009.14 1009.10 1009.11 1009.16 1009.26 1009.38 1009.53 1009.68 1009.84 1010.00 1010.16 1010.32 1010.49 1010.67 1010.87 1011.09 1011.33 1011.58 1011.84 1012.09 1012.33
1004.72 1004.68 1004.72 1004.84 1005.05 1005.33 1005.70 1006.13 1006.61 1007.14 1007.69 1008.23 1008.76 1009.25 1009.67 1010.02 1010.29 1010.48 1010.59 1010.63 1010.63 1010.60 1010.56 1010.51 1010.47 1010.44 1010.43 1010.44 1010.46 1010.49 1010.53 1010.58 1010.64 1010.71 1010.81 1010.92 1011.07 1011.23 1011.43 1011.64 1011.87 1012.10 1012.33 1012.55
1005.13 1005.09 1005.15 1005.31 1005.57 1005.93 1006.36 1006.86 1007.40 1007.97 1008.55 1009.11 1009.65 1010.15 1010.59 1010.97 1011.28 1011.52 1011.69 1011.80 1011.86 1011.87 1011.85 1011.80 1011.73 1011.65 1011.56 1011.46 1011.37 1011.28 1011.21 1011.16 1011.14 1011.15 1011.19 1011.26 1011.37 1011.51 1011.68 1011.87 1012.07 1012.27 1012.47 1012.66
1005.82 1005.76 1005.82 1005.99 1006.27 1006.66 1007.13 1007.67 1008.26 1008.86 1009.47 1010.06 1010.63 1011.14 1011.61 1012.01 1012.36 1012.64 1012.85 1012.99 1013.08 1013.10 1013.07 1012.98 1012.86 1012.70 1012.52 1012.32 1012.12 1011.94 1011.78 1011.66 1011.57 1011.53 1011.54 1011.59 1011.68 1011.80 1011.95 1012.11 1012.28 1012.45 1012.62 1012.76
1006.73 1006.64 1006.66 1006.81 1007.08 1007.47 1007.96 1008.51 1009.12 1009.76 1010.40 1011.02 1011.61 1012.16 1012.65 1013.09 1013.46 1013.77 1014.00 1014.16 1014.24 1014.24 1014.18 1014.05 1013.86 1013.62 1013.36 1013.08 1012.80 1012.54 1012.32 1012.15 1012.03 1011.97 1011.97 1012.02 1012.11 1012.22 1012.36 1012.50 1012.64 1012.78 1012.90 1013.00
1007.78 1007.65 1007.63 1007.73 1007.97 1008.34 1008.81 1009.37 1009.98 1010.63 1011.29 1011.95 1012.57 1013.14 1013.67 1014.13 1014.52 1014.84 1015.09 1015.24 1015.31 1015.29 1015.19 1015.01 1014.76 1014.47 1014.14 1013.81 1013.48 1013.19 1012.94 1012.76 1012.64 1012.59 1012.60 1012.66 1012.76 1012.88 1013.01 1013.13 1013.25 1013.34 1013.42 1013.48
1008.89 1008.72 1008.66 1008.72 1008.92 1009.24 1009.68 1010.22 1010.83 1011.48 1012.15 1012.82 1013.46 1014.06 1014.61 1015.09 1015.50 1015.82 1016.06 1016.21 1016.26 1016.22 1016.09 1015.88 1015.61 1015.28 1014.93 1014.58 1014.25 1013.96 1013.73 1013.56 1013.47 1013.45 1013.49 1013.57 1013.69 1013.81 1013.94 1014.05 1014.13 1014.19 1014.22 1014.23
1009.99 1009.81 1009.72 1009.75 1009.90 1010.19 1010.59 1011.10 1011.68 1012.32 1012.99 1013.65 1014.29 1014.90 1015.45 1015.94 1016.34 1016.67 1016.91 1017.05 1017.09 1017.04 1016.90 1016.69 1016.42 1016.10 1015.77 1015.44 1015.14 1014.88 1014.69 1014.57 1014.52 1014.54 1014.61 1014.72 1014.85 1014.98 1015.10 1015.19 1015.24 1015.27 1015.25 1015.22
1011.03 1010.87 1010.77 1010.78 1010.91 1011.16 1011.53 1012.00 1012.55 1013.16 1013.80 1014.44 1015.07 1015.65 1016.19 1016.66 1017.06 1017.37 1017.60 1017.74 1017.79 1017.75 1017.63 1017.44 1017.20 1016.93 1016.64 1016.37 1016.13 1015.93 1015.79 1015.73 1015.72 1015.77 1015.87 1016.00 1016.13 1016.26 1016.36 1016.43 1016.45 1016.44 1016.39 1016.32
1011.96 1011.83 1011.76 1011.78 1011.91 1012.14 1012.48 1012.92 1013.43 1013.99 1014.59 1015.19 1015.78 1016.33 1016.83 1017.27 1017.64 1017.94 1018.16 1018.30 1018.36 1018.34 1018.26 1018.12 1017.94 1017.74 1017.52 1017.32 1017.15 1017.02 1016.93 1016.91 1016.93 1017.01 1017.11 1017.23 1017.36 1017.47 1017.55 1017.59 1017.60 1017.56 1017.49 1017.39
1012.74 1012.68 1012.66 1012.71 1012.84 1013.07 1013.40 1013.80 1014.28 1014.79 1015.34 1015.88 1016.41 1016.91 1017.36 1017.76 1018.10 1018.38 1018.59 1018.73 1018.82 1018.84 1018.81 1018.73 1018.62 1018.49 1018.36 1018.23 1018.12 1018.04 1018.00 1018.00 1018.04 1018.11 1018.20 1018.30 1018.39 1018.48 1018.54 1018.56 1018.55 1018.51 1018.43 1018.33
1013.36 1013.36 1013.40 1013.50 1013.66 1013.90 1014.22 1014.61 1015.04 1015.51 1016.00 1016.49 1016.95 1017.39 1017.79 1018.15 1018.45 1018.70 1018.91 1019.06 1019.17 1019.24 1019.26 1019.25 1019.22 1019.16 1019.10 1019.03 1018.97 1018.93 1018.91 1018.91 1018.93 1018.98 1019.04 1019.10 1019.17 1019.22 1019.26 1019.27 1019.26 1019.23 1019.16 1019.08
1013.80 1013.87 1013.97 1014.12 1014.32 1014.58 1014.90 1015.27 1015.68 1016.11 1016.55 1016.98 1017.39 1017.77 1018.12 1018.43 1018.71 1018.94 1019.15 1019.31 1019.45 1019.55 1019.63 1019.68 1019.71 1019.72 1019.71 1019.69 1019.67 1019.64 1019.62 1019.60 1019.60 1019.61 1019.63 1019.65 1019.68 1019.71 1019.74 1019.76 1019.77 1019.76 1019.73 1019.68
1014.08 1014.21 1014.37 1014.56 1014.80 1015.08 1015.41 1015.78 1016.17 1016.57 1016.97 1017.36 1017.73 1018.07 1018.37 1018.65 1018.91 1019.13 1019.33 1019.52 1019.68 1019.82 1019.94 1020.04 1020.12 1020.18 1020.21 1020.22 1020.21 1020.19 1020.16 1020.12 1020.09 1020.06 1020.04 1020.04 1020.05 1020.07 1020.10 1020.14 1020.18 1020.21 1020.23 1020.24
1014.24 1014.42 1014.62 1014.85 1015.12 1015.43 1015.77 1016.14 1016.52 1016.91 1017.29 1017.65 1017.99 1018.31 1018.59 1018.85 1019.10 1019.32 1019.52 1019.72 1019.90 1020.07 1020.23 1020.36 1020.48 1020.56 1020.62 1020.65 1020.65 1020.63 1020.59 1020.54 1020.49 1020.44 1020.41 1020.39 1020.40 1020.43 1020.49 1020.56 1020.65 1020.73 1020.81 1020.86
1014.36 1014.56 1014.79 1015.05 1015.35 1015.68 1016.04 1016.42 1016.80 1017.19 1017.57 1017.92 1018.25 1018.56 1018.83 1019.09 1019.33 1019.55 1019.76 1019.96 1020.16 1020.35 1020.52 1020.68 1020.82 1020.92 1021.00 1021.05 1021.06 1021.05 1021.01 1020.97 1020.92 1020.88 1020.86 1020.86 1020.89 1020.96 1021.05 1021.17 1021.30 1021.43 1021.55 1021.64
Thickness
5769 5773 5769 5767 5771 5780 5780 5783 5777 5780 5778 5779 5785 5787 5792 5799 5805 5806 5801 5798 5794 5788 5784 5780 5775 5771 5768 5764 5761 5758 5754 5750 5748 5748 5747 5745 5744 5743 5743 5742 5742 5740 5739 5739
5755 5765 5766 5761 5768 5773 5777 5784 5785 5785 5781 5793 5795 5791 5792 5794 5799 5797 5795 5795 5792 5787 5782 5777 5772 5769 5766 5763 5761 5758 5754 5750 5748 5747 5745 5743 5743 5742 5740 5739 5738 5737 5735 5734
5741 5754 5751 5742 5764 5772 5778 5784 5784 5773 5777 5786 5781 5778 5779 5787 5790 5790 5789 5789 5787 5783 5779 5776 5772 5769 5765 5763 5761 5757 5753 5749 5747 5744 5742 5740 5740 5738 5736 5735 5734 5732 5731 5729
5735 5737 5721 5754 5781 5780 5775 5778 5783 5780 5781 5781 5778 5777 5776 5780 5781 5781 5783 5782 5782 5781 5778 5775 5773 5769 5765 5762 5758 5754 5750 5747 5744 5742 5740 5738 5736 5734 5733 5731 5728 5727 5725 5724
5724 5722 5731 5752 5762 5764 5760 5757 5768 5768 5769 5771 5774 5769 5760 5766 5771 5772 5773 5775 5776 5778 5777 5773 5770 5766 5762 5757 5754 5750 5746 5743 5742 5740 5736 5734 5731 5730 5728 5725 5723 5721 5719 5718
5715 5708 5708 5730 5753 5764 5755 5736 5753 5758 5756 5759 5759 5746 5741 5752 5756 5759 5762 5766 5767 5769 5769 5766 5764 5762 5756 5751 5747 5744 5742 5740 5738 5736 5732 5729 5727 5725 5724 5721 5718 5715 5712 5710
5707 5704 5712 5729 5744 5748 5722 5718 5739 5745 5745 5745 5739 5736 5738 5743 5744 5747 5749 5752 5756 5757 5755 5755 5756 5754 5748 5744 5739 5738 5737 5735 5733 5730 5727 5724 5721 5719 5717 5714 5710 5707 5704 5702
5702 5695 5695 5722 5729 5717 5713 5728 5733 5734 5734 5733 5731 5732 5731 5731 5732 5734 5735 5738 5741 5741 5741 5743 5745 5743 5737 5733 5732 5732 5730 5727 5723 5721 5720 5717 5713 5710 5708 5705 5701 5697 5694 5692
5694 5692 5703 5713 5712 5716 5721 5719 5721 5722 5723 5723 5721 5718 5718 5719 5719 5720 5722 5724 5726 5727 5726 5727 5729 5729 5724 5722 5723 5722 5719 5716 5713 5710 5708 5707 5703 5700 5698 5695 5692 5689 5686 5682
5689 5693 5697 5700 5704 5706 5709 5708 5711 5712 5712 5712 5709 5706 5705 5705 5705 5706 5707 5709 5711 5712 5710 5710 5711 5712 5711 5711 5711 5710 5706 5704 5702 5699 5696 5694 5692 5690 5686 5683 5680 5679 5676 5672
5680 5683 5685 5686 5688 5692 5694 5696 5697 5699 5700 5699 5696 5693 5692 5692 5691 5692 5693 5695 5696 5696 5695 5694 5695 5696 5697 5698 5698 5695 5693 5691 5689 5687 5683 5679 5676 5672 5672 5667 5667 5666 5664 5660
5667 5672 5671 5669 5675 5680 5680 5680 5682 5683 5682 5682 5682 5678 5677 5676 5676 5678 5679 5680 5681 5681 5680 5681 5681 5681 5682 5684 5684 5682 5680 5678 5678 5676 5673 5670 5665 5660 5655 5654 5651 5651 5649 5646
5667 5666 5664 5663 5665 5667 5667 5666 5668 5668 5667 5666 5665 5664 5663 5662 5663 5664 5665 5665 5666 5666 5666 5667 5667 5667 5668 5669 5670 5669 5667 5666 5667 5665 5663 5660 5657 5653 5647 5642 5639 5637 5636 5634
5661 5659 5654 5654 5652 5653 5654 5653 5654 5653 5652 5652 5651 5651 5651 5650 5650 5651 5650 5651 5653 5653 5653 5653 5653 5653 5654 5655 5655 5655 5655 5654 5654 5653 5651 5650 5648 5646 5643 5638 5633 5629 5625 5622
5654 5653 5649 5646 5644 5642 5642 5641 5640 5638 5637 5637 5638 5638 5638 5637 5636 5636 5637 5639 5640 5639 5639 5639 5640 5639 5641 5642 5642 5641 5641 5641 5640 5641 5640 5640 5638 5636 5634 5630 5627 5623 5618 5612
5645 5645 5642 5639 5636 5634 5633 5631 5629 5627 5626 5625 5625 5624 5625 5625 5625 5624 5625 5625 5626 5625 5625 5626 5625 5626 5628 5629 5629 5629 5627 5626 5628 5629 5628 5628 5626 5623 5620 5617 5614 5611 5606 5601
5637 5634 5634 5632 5630 5628 5627 5625 5623 5621 5619 5618 5616 5617 5617 5617 5615 5614 5614 5614 5614 5614 5614 5614 5615 5616 5616 5617 5618 5619 5619 5618 5617 5617 5616 5613 5611 5608 5606 5603 5600 5597 5592 5587
5636 5634 5632 5629 5628 5625 5622 5620 5619 5617 5615 5614 5613 5613 5611 5610 5607 5606 5606 5606 5605 5604 5603 5604 5605 5606 5607 5606 5606 5608 5609 5609 5607 5606 5603 5600 5597 5595 5593 5590 5586 5582 5578 5574
5631 5629 5627 5625 5624 5622 5618 5616 5614 5613 5612 5610 5608 5606 5605 5604 5602 5601 5600 5598 5596 5593 5592 5595 5595 5597 5597 5596 5596 5598 5599 5598 5596 5594 5592 5587 5585 5582 5578 5574 5569 5565 5560 5556
5624 5623 5621 5619 5618 5615 5613 5611 5610 5608 5606 5604 5601 5598 5596 5596 5595 5594 5591 5589 5586 5585 5586 5586 5587 5587 5587 5586 5585 5588 5588 5587 5584 5581 5578 5574 5569 5565 5561 5556 5552 5547 5542 5537
5616 5615 5613 5611 5609 5608 5607 5605 5603 5600 5598 5597 5594 5591 5589 5588 5588 5586 5584 5580 5577 5576 5578 5577 5576 5575 5575 5573 5576 5578 5577 5574 5570 5566 5562 5558 5553 5548 5543 5538 5533 5529 5524 5519
5608 5607 5604 5603 5602 5600 5599 5597 5595 5593 5591 5590 5588 5585 5583 5581 5579 5577 5574 5572 5569 5567 5569 5568 5565 5561 5561 5563 5566 5565 5561 5558 5555 5551 5546 5541 5536 5531 5526 5520 5515 5511 5506 5502
5600 5598 5597 5595 5593 5591 5590 5589 5587 5585 5583 5581 5579 5577 5576 5574 5574 5571 5565 5563 5562 5558 5558 5554 5551 5550 5548 5553 5552 5549 5546 5542 5539 5535 5530 5525 5520 5514 5509 5504 5499 5494 5489 5485
5592 5590 5588 5587 5586 5584 5581 5580 5580 5578 5576 5574 5572 5571 5569 5567 5564 5561 5556 5551 5550 5549 5547 5542 5540 5539 5539 5541 5538 5534 5530 5526 5523 5519 5514 5509 5504 5499 5494 5489 5484 5480 5475 5471
5583 5582 5581 5579 5578 5577 5576 5575 5573 5572 5570 5568 5565 5563 5562 5559 5555 5551 5548 5544 5539 5539 5537 5532 5530 5528 5529 5527 5523 5519 5514 5509 5506 5502 5498 5494 5490 5485 5480 5475 5471 5467 5463 5459
5575 5574 5572 5572 5571 5571 5571 5569 5568 5566 5564 5560 5557 5555 5552 5549 5546 5542 5539 5536 5532 5529 5527 5524 5521 5519 5516 5512 5508 5504 5500 5497 5494 5489 5484 5480 5476 5472 5467 5463 5460 5456 5452 5448
5568 5567 5566 5565 5565 5564 5563 5561 5558 5556 5553 5551 5548 5545 5543 5539 5536 5532 5529 5526 5522 5519 5516 5513 5509 5506 5502 5498 5494 5490 5486 5483 5479 5476 5472 5468 5465 5461 5457 5453 5449 5446 5442 5440